Starlink 6157

operational
NORAD ID: 56379 Int'l Des: 2023-061 Owner: SPXS Country: US Constellation: starlink
LEOCIRCULAR

Über Starlink 6157

Beschreibung wird geladen...

Live-Position

3D-Globus wird geladen...

Nächste Überflüge

Höhenverlauf

Altitude vs Time

uPlot chart will show altitude changes over time

Zweizeiliger Elementsatz

1 56379U 23061F 25304.71230340 .00001758 00000-0 14514-3 0 9995
2 56379 43.0006 178.2443 0000990 236.8696 123.2052 15.02537377138458
Epoch: 31. Okt. 2025 • Age: 20 hours

Aktueller Status

Höhe 557.9 km
Geschwindigkeit 7.59 km/s
Subsatellitenpunkt 11.01°N, 106.21°E
Startdatum 4. Mai 2023
Alter 2.4 years
Typ internet

Technische Details

Klassifizierung Payload
Masse 305.00 kg
Trockenmasse 290.00 kg
Gesamtmasse 305.00 kg
Länge 0.20 m
Durchmesser 2.80 m
Spannweite 9.00 m
Form Box + pan
Hersteller SPXS
Bus-Typ Starlink
Phasenstatus In Orbit
Besitzer/Staat SPXS/US

Große Konstellationen

Loading constellations...